This is the latest recevied weather packets stored in our database for station/object SQ9RHX-13. If no packets are shown the sender has not sent any weather packets the latest 10 day(s).
| Time | Temp. | Humidity | Pressure | Rain* | Wind** | Luminosity | Snow |
|---|---|---|---|---|---|---|---|
| 1777973703 | 23.89° C | 42% | 1011.7 hPa | 0 mm | - | 440 W/m² | - |
| 1777973402 | 23.89° C | 42% | 1011.6 hPa | 0 mm | - | 413 W/m² | - |
| 1777973103 | 23.89° C | 39% | 1011.5 hPa | 0 mm | - | 373 W/m² | - |
| 1777972803 | 24.44° C | 40% | 1011.8 hPa | 0 mm | - | 461 W/m² | - |
| 1777972503 | 23.89° C | 41% | 1011.7 hPa | 0 mm | - | 551 W/m² | - |
| 1777972204 | 23.89° C | 38% | 1011.9 hPa | 0 mm | - | 697 W/m² | - |
| 1777971903 | 24.44° C | 41% | 1012 hPa | 0 mm | - | 642 W/m² | - |
| 1777971603 | 23.89° C | 42% | 1011.9 hPa | 0 mm | - | 654 W/m² | - |
| 1777971303 | 22.78° C | 44% | 1012 hPa | 0 mm | - | 676 W/m² | - |
| 1777971004 | 21.67° C | 46% | 1012 hPa | 0 mm | - | 631 W/m² | - |
| 1777970703 | 21.67° C | 50% | 1012.1 hPa | 0 mm | - | 344 W/m² | - |
| 1777970403 | 21.67° C | 53% | 1012.2 hPa | 0 mm | - | 308 W/m² | - |
| 1777970103 | 22.22° C | 52% | 1012.2 hPa | 0 mm | - | 274 W/m² | - |
| 1777969803 | 21.11° C | 55% | 1012.4 hPa | 0 mm | - | 412 W/m² | - |
| 1777969503 | 20.56° C | 56% | 1012.4 hPa | 0 mm | - | 376 W/m² | - |
| 1777969204 | 20.56° C | 57% | 1012.4 hPa | 0 mm | - | 354 W/m² | - |
| 1777968902 | 20° C | 60% | 1012.3 hPa | 0 mm | - | 268 W/m² | - |
| 1777968602 | 19.44° C | 61% | 1012.6 hPa | 0 mm | - | 237 W/m² | - |
| 1777968304 | 19.44° C | 60% | 1012.6 hPa | 0 mm | - | 227 W/m² | - |
| 1777968007 | 18.89° C | 63% | 1012.5 hPa | 0 mm | - | 229 W/m² | - |
| 1777967703 | 18.33° C | 64% | 1012.6 hPa | 0 mm | - | 209 W/m² | - |
| 1777967404 | 18.33° C | 63% | 1012.8 hPa | 0 mm | - | 184 W/m² | - |
| 1777967103 | 17.78° C | 64% | 1012.7 hPa | 0 mm | - | 146 W/m² | - |
| 1777966805 | 17.78° C | 65% | 1012.6 hPa | 0 mm | - | 123 W/m² | - |
| 1777966503 | 17.78° C | 65% | 1012.8 hPa | 0 mm | - | 121 W/m² | - |
* Rain latest hour (hover to see other rain measurements)
** Current wind speed in m/s (hover to see current wind gust speed)